Location: Hilton Head Island
(32.2163°N, 80.7526°W)
Time: 03:40:11
(UTC-04:00)

Explorer 7 - Pass Details

Date: 18 February 2026
Orbit: 430 x 541 km, 50.2° (Epoch: 11 March)

Event Time Altitude Azimuth Distance (km) Brightness Sun altitude
Rises 22:44:58 0° 298° (WNW) 2,612 - -56.8°
Reaches altitude 10° 22:47:27 10° 283° (WNW) 1,744 - -57.3°
Maximum altitude 22:50:38 23° 230° (SW) 1,145 - -57.8°
Drops below altitude 10° 22:53:52 10° 177° (S) 1,777 - -58.4°
Sets 22:56:26 0° 163° (SSE) 2,676 - -58.8°
